Regional Weather Roundup
Issued by NWS Albany, NY

Home | Current Version | Previous Version | Text Only | Print | Product List | Glossary On
Versions: 1 2 3 4 5 6 7 8 9 10 11 12 13 14 15 16 17 18 19 20 21 22 23 24 25 26 27
000
ASUS41 KALY 231410
RWRALY

NEW YORK STATE HOURLY WEATHER ROUNDUP
NATIONAL WEATHER SERVICE ALBANY NY
1000 AM EDT SAT SEP 23 2017

NOTE: "FAIR" INDICATES FEW OR NO CLOUDS BELOW 12,000 FEET WITH NO
SIGNIFICANT WEATHER AND/OR NO OBSTRUCTIONS TO VISIBILITY.

NYZ032-033-038>043-046>054-057>066-NYZ062>081-082-084-231500-
EAST


CITY           SKY/WX    TMP DP  RH WIND       PRES   REMARKS
ALBANY         MOSUNNY   67  55  65 NW6       30.12R
GLENS FALLS    SUNNY     65  53  65 CALM      30.12R
POUGHKEEPSIE   SUNNY     70  53  54 VRB3      30.08S
NEWBURGH       SUNNY     70  57  64 CALM      30.11S
MONTGOMERY       N/A    N/A N/A N/A MISG      30.09S
WHITE PLAINS   SUNNY     74  57  55 N15G25    30.05R
ISLIP          MOSUNNY   75  59  57 NW15      30.02R
NEW YORK CITY  MOSUNNY   74  56  53 N16G22    30.05R
CENTRAL PARK   SUNNY     75  56  51 VRB3      30.08R
$$

NYZ005>009-017-018-044>046-055-056-231500-
CENTRAL


CITY           SKY/WX    TMP DP  RH WIND       PRES   REMARKS
FULTON         SUNNY     70  59  68 CALM      30.14S
SYRACUSE       MOSUNNY   67  59  75 CALM      30.14R
ROME           PTSUNNY   61  58  90 CALM      30.16S
ELMIRA         SUNNY     64  58  80 S5        30.17S
BINGHAMTON     SUNNY     65  57  75 N7        30.17R
MONTICELLO     SUNNY     71  54  54 NW6       30.15S
$$

NYZ026>034-041>043-087-231500-
NORTH


CITY           SKY/WX    TMP DP  RH WIND       PRES   REMARKS
WATERTOWN      SUNNY     72  65  78 SW5       30.12S
FORT DRUM      NOT AVBL
OGDENSBURG     FAIR      71  61  70 SW5       30.09F
MASSENA        MOSUNNY   70  59  68 SW8       30.09S
SARANAC LAKE   SUNNY     64  51  62 S6        30.15S
PLATTSBURGH    SUNNY     66  52  60 SE5       30.10R
$$

NYZ001>004-010>016-019>021-085-231500-
WEST


CITY           SKY/WX    TMP DP  RH WIND       PRES   REMARKS
NIAGARA FALLS  SUNNY     74  63  68 S5        30.15R
BUFFALO        MOSUNNY   71  55  56 SW3       30.16R
DUNKIRK        SUNNY     72  59  63 SW3       30.17R
JAMESTOWN      SUNNY     69  60  73 CALM      30.21R
WELLSVILLE     SUNNY     70  59  68 CALM      30.23R
ROCHESTER      SUNNY     69  57  65 SW6       30.16S
PENN YAN       SUNNY     68  56  65 SW5       30.17S
$$

             KEY
       WCI = WIND CHILL INDEX
       VSB = VISIBILITY
       HX  = HEAT INDEX
$$




USA.gov is the U.S. government's official web portal to all federal, state and local government web resources and services.